F3625 Weather Reports


Display with metric or nautical units.
time (UTC)temp
F
wind
direction
speed
MPH
gust
MPH
rain 1hr
in
rain 24hr
in
rain mn
in
humidity
%
barometer
mb
20260506221554 77 0 0.0 7.0 0.00 0.00 0.00 39 1015.5
20260506221042 77 0 2.0 8.0 0.00 0.00 0.00 39 1015.6
20260506220539 77 0 1.0 8.0 0.00 0.00 0.00 40 1015.7
20260506220051 77 0 0.0 5.0 0.00 0.00 0.00 39 1015.7
20260506215539 77 213 1.0 6.0 0.00 0.00 0.00 38 1015.8
20260506215040 76 0 0.0 8.0 0.00 0.00 0.00 41 1015.8
20260506214551 75 204 3.0 10.0 0.00 0.00 0.00 42 1015.9
20260506214040 75 203 2.0 10.0 0.00 0.00 0.00 40 1015.9
20260506213539 75 198 3.0 9.0 0.00 0.00 0.00 40 1015.8
20260506213051 75 222 3.0 8.0 0.00 0.00 0.00 39 1015.9
20260506212541 75 198 0.0 8.0 0.00 0.00 0.00 43 1015.9
20260506212040 74 136 2.0 9.0 0.00 0.00 0.00 42 1015.9
20260506211549 74 193 3.0 9.0 0.00 0.00 0.00 41 1015.9
20260506211039 73 219 3.0 9.0 0.00 0.00 0.00 42 1016.0
20260506210540 74 223 3.0 8.0 0.00 0.00 0.00 42 1016.0
20260506210050 74 215 4.0 8.0 0.00 0.00 0.00 41 1016.0
20260506205539 75 207 2.0 8.0 0.00 0.00 0.00 41 1016.1
20260506205039 74 230 2.0 6.0 0.00 0.00 0.00 41 1016.1
20260506204556 74 243 1.0 6.0 0.00 0.00 0.00 41 1016.2
20260506204045 74 234 1.0 4.0 0.00 0.00 0.00 40 1016.2
20260506203540 75 235 1.0 3.0 0.00 0.00 0.00 39 1016.3
20260506203048 75 238 0.0 3.0 0.00 0.00 0.00 41 1016.4
20260506202540 74 238 1.0 4.0 0.00 0.00 0.00 39 1016.4
20260506202043 75 238 1.0 4.0 0.00 0.00 0.00 37 1016.5
20260506201553 75 238 0.0 3.0 0.00 0.00 0.00 39 1016.6
20260506201040 75 0 0.0 3.0 0.00 0.00 0.00 38 1016.6
20260506200543 74 229 0.0 3.0 0.00 0.00 0.00 42 1016.6
20260506200106 73 0 0.0 3.0 0.00 0.00 0.00 44 1016.7
20260506195539 72 0 0.0 3.0 0.00 0.00 0.00 42 1016.7
20260506195042 72 230 1.0 5.0 0.00 0.00 0.00 40 1016.8
20260506194606 72 0 0.0 5.0 0.00 0.00 0.00 44 1016.8
20260506194040 72 222 1.0 5.0 0.00 0.00 0.00 41 1016.9
20260506193543 72 0 1.0 4.0 0.00 0.00 0.00 41 1016.9
20260506193049 72 0 0.0 4.0 0.00 0.00 0.00 42 1017.0
20260506192542 73 232 0.0 3.0 0.00 0.00 0.00 40 1017.1
20260506192046 74 232 0.0 3.0 0.00 0.00 0.00 41 1017.1
20260506191551 73 0 1.0 4.0 0.00 0.00 0.00 40 1017.1
20260506191039 72 0 0.0 4.0 0.00 0.00 0.00 42 1017.1
20260506190538 72 0 1.0 4.0 0.00 0.00 0.00 41 1017.2
20260506190053 72 0 0.0 3.0 0.00 0.00 0.00 45 1017.2
20260506185541 71 233 0.0 6.0 0.00 0.00 0.00 46 1017.2
20260506185045 71 240 0.0 6.0 0.00 0.00 0.00 47 1017.2
20260506184605 70 219 1.0 5.0 0.00 0.00 0.00 45 1017.3
20260506184040 70 161 0.0 2.0 0.00 0.00 0.00 47 1017.4
20260506183543 70 0 0.0 2.0 0.00 0.00 0.00 43 1017.5
20260506183101 70 0 0.0 5.0 0.00 0.00 0.00 44 1017.5
20260506182542 69 0 1.0 5.0 0.00 0.00 0.00 48 1017.5
20260506182039 69 163 0.0 4.0 0.00 0.00 0.00 45 1017.5
20260506181559 68 0 0.0 4.0 0.00 0.00 0.00 45 1017.5
20260506181039 68 164 1.0 3.0 0.00 0.00 0.00 44 1017.5
20260506180545 68 0 0.0 2.0 0.00 0.00 0.00 47 1017.5
20260506180054 67 0 0.0 3.0 0.00 0.00 0.00 47 1017.5
20260506175544 67 0 0.0 3.0 0.00 0.00 0.00 49 1017.4
20260506175041 67 147 1.0 3.0 0.00 0.00 0.00 46 1017.6
20260506174551 66 0 0.0 3.0 0.00 0.00 0.00 49 1017.5
20260506174039 66 0 1.0 3.0 0.00 0.00 0.00 48 1017.6
20260506173545 66 0 0.0 3.0 0.00 0.00 0.00 50 1017.6
20260506173104 65 0 0.0 3.0 0.00 0.00 0.00 50 1017.5
20260506172543 65 0 0.0 2.0 0.00 0.00 0.00 48 1017.6
20260506172043 64 0 0.0 3.0 0.00 0.00 0.00 50 1017.6
20260506171552 64 0 0.0 3.0 0.00 0.00 0.00 53 1017.6
20260506171042 63 151 0.0 3.0 0.00 0.00 0.00 52 1017.7
20260506170540 63 0 0.0 3.0 0.00 0.00 0.00 53 1017.7
20260506170056 62 152 1.0 4.0 0.00 0.00 0.00 52 1017.7
20260506165542 63 0 1.0 4.0 0.00 0.00 0.00 52 1017.7
20260506165042 63 148 0.0 3.0 0.00 0.00 0.00 52 1017.7
20260506164556 63 0 0.0 2.0 0.00 0.00 0.00 51 1017.7
20260506164041 62 148 0.0 1.0 0.00 0.00 0.00 53 1017.7
20260506163538 62 0 0.0 1.0 0.00 0.00 0.00 53 1017.7
20260506163054 61 0 0.0 2.0 0.00 0.00 0.00 53 1017.8
20260506162538 60 148 0.0 2.0 0.00 0.00 0.00 54 1017.9
20260506162040 60 0 0.0 3.0 0.00 0.00 0.00 54 1017.7
20260506161602 60 0 0.0 3.0 0.00 0.00 0.00 56 1017.9
20260506161043 59 149 0.0 2.0 0.00 0.00 0.00 55 1017.7
20260506160541 59 0 0.0 4.0 0.00 0.00 0.00 54 1017.9
20260506160054 59 0 1.0 4.0 0.00 0.00 0.00 54 1017.8
20260506155542 58 154 1.0 3.0 0.00 0.00 0.00 55 1017.9
20260506155044 58 0 0.0 1.0 0.00 0.00 0.00 55 1017.9
20260506154554 58 0 0.0 2.0 0.00 0.00 0.00 55 1017.9
20260506154046 57 0 0.0 2.0 0.00 0.00 0.00 55 1018.0
20260506153543 57 0 0.0 2.0 0.00 0.00 0.00 55 1018.0
20260506153048 57 0 0.0 1.0 0.00 0.00 0.00 55 1018.0
20260506152539 57 0 0.0 2.0 0.00 0.00 0.00 56 1018.0
20260506152047 56 0 0.0 2.0 0.00 0.00 0.00 55 1018.0
20260506151604 56 0 0.0 2.0 0.00 0.00 0.00 56 1018.1
20260506151041 56 0 0.0 2.0 0.00 0.00 0.00 56 1018.0
20260506150538 56 0 0.0 1.0 0.00 0.00 0.00 57 1018.0
20260506150049 55 0 0.0 2.0 0.00 0.00 0.00 57 1017.9
20260506145539 55 0 0.0 2.0 0.00 0.00 0.00 57 1017.9
20260506145039 55 209 0.0 2.0 0.00 0.00 0.00 57 1018.0
20260506144549 55 0 0.0 2.0 0.00 0.00 0.00 57 1017.9
20260506144042 55 0 0.0 0.0 0.00 0.00 0.00 58 1017.9
20260506143540 54 0 0.0 0.0 0.00 0.00 0.00 58 1017.9
20260506143053 54 0 0.0 0.0 0.00 0.00 0.00 59 1017.7
20260506142538 54 0 0.0 0.0 0.00 0.00 0.00 58 1017.8
20260506142041 54 0 0.0 0.0 0.00 0.00 0.00 59 1017.7
20260506141550 54 0 0.0 0.0 0.00 0.00 0.00 59 1017.6
20260506141039 54 0 0.0 0.0 0.00 0.00 0.00 60 1017.6
20260506140542 53 0 0.0 0.0 0.00 0.00 0.00 61 1017.5
20260506135540 53 0 0.0 0.0 0.00 0.00 0.00 63 1017.5
20260506135040 53 0 0.0 0.0 0.00 0.00 0.00 64 1017.4
20260506134553 53 0 0.0 0.0 0.00 0.00 0.00 64 1017.2
20260506134039 53 0 0.0 0.0 0.00 0.00 0.00 64 1017.3
20260506133542 53 0 0.0 0.0 0.00 0.00 0.00 64 1017.3
20260506133049 53 0 0.0 0.0 0.00 0.00 0.00 64 1017.2
20260506132540 53 0 0.0 0.0 0.00 0.00 0.00 64 1017.2
20260506132043 53 0 0.0 0.0 0.00 0.00 0.00 64 1017.2
20260506131552 53 0 0.0 0.0 0.00 0.00 0.00 64 1017.1
20260506131040 53 0 0.0 0.0 0.00 0.00 0.00 64 1017.0
20260506130540 53 0 0.0 0.0 0.00 0.00 0.00 64 1017.0
20260506130118 53 0 0.0 0.0 0.00 0.00 0.00 64 1017.1
20260506125542 53 0 0.0 0.0 0.00 0.00 0.00 64 1017.0
20260506125041 52 0 0.0 0.0 0.00 0.00 0.00 64 1016.9
20260506124550 52 0 0.0 0.0 0.00 0.00 0.00 64 1016.8
20260506124042 52 0 0.0 0.0 0.00 0.00 0.00 64 1016.9
20260506123542 52 0 0.0 0.0 0.00 0.00 0.00 64 1016.8
20260506123049 52 0 0.0 0.0 0.00 0.00 0.00 64 1016.8
20260506122543 52 0 0.0 0.0 0.00 0.00 0.00 64 1016.8
20260506122042 52 0 0.0 0.0 0.00 0.00 0.00 64 1016.7
20260506121552 52 0 0.0 0.0 0.00 0.00 0.00 64 1016.7
20260506121039 52 0 0.0 0.0 0.00 0.00 0.00 64 1016.7
20260506120542 52 0 0.0 0.0 0.00 0.00 0.00 65 1016.7
20260506120050 52 0 0.0 0.0 0.00 0.00 0.00 65 1016.8
20260506115540 52 0 0.0 0.0 0.00 0.01 0.00 65 1016.8
20260506115039 52 0 0.0 0.0 0.00 0.01 0.00 65 1016.7
20260506114555 52 0 0.0 0.0 0.00 0.01 0.00 65 1016.6
20260506114039 52 0 0.0 0.0 0.00 0.01 0.00 65 1016.7
20260506113538 52 0 0.0 0.0 0.00 0.01 0.00 65 1016.7
20260506113056 52 0 0.0 0.0 0.00 0.01 0.00 65 1016.7
20260506112539 52 0 0.0 0.0 0.00 0.01 0.00 65 1016.6
20260506112038 51 0 0.0 0.0 0.00 0.01 0.00 65 1016.5
20260506111546 51 0 0.0 0.0 0.00 0.01 0.00 65 1016.5
20260506111039 51 0 0.0 0.0 0.00 0.01 0.00 65 1016.4
20260506110539 51 0 0.0 0.0 0.00 0.01 0.00 65 1016.3
20260506110056 51 0 0.0 0.0 0.00 0.01 0.00 65 1016.3
20260506105539 51 0 0.0 0.0 0.00 0.02 0.00 65 1016.3
20260506105039 51 0 0.0 0.0 0.00 0.02 0.00 65 1016.3
20260506104600 51 0 0.0 0.0 0.00 0.02 0.00 65 1016.3
20260506104039 51 0 0.0 0.0 0.00 0.02 0.00 65 1016.3
20260506103541 51 0 0.0 0.0 0.00 0.02 0.00 65 1016.2
20260506103048 51 0 0.0 0.0 0.00 0.02 0.00 65 1016.2
20260506102542 51 0 0.0 0.0 0.00 0.02 0.00 65 1016.3
20260506102042 51 0 0.0 0.0 0.00 0.02 0.00 65 1016.3
20260506101555 50 0 0.0 0.0 0.00 0.02 0.00 65 1016.3
20260506101039 50 0 0.0 0.0 0.00 0.02 0.00 65 1016.2
20260506100548 50 0 0.0 0.0 0.00 0.02 0.00 65 1016.3
20260506100055 50 0 0.0 0.0 0.00 0.02 0.00 64 1016.4
20260506095547 50 0 0.0 0.0 0.00 0.03 0.00 64 1016.3
20260506095044 50 0 0.0 0.0 0.00 0.03 0.00 64 1016.2
20260506094555 50 0 0.0 0.0 0.00 0.03 0.00 64 1016.1
20260506094043 50 0 0.0 0.0 0.00 0.03 0.00 64 1016.1
20260506093547 50 0 0.0 0.0 0.00 0.03 0.00 64 1016.2
20260506093100 50 0 0.0 0.0 0.00 0.03 0.00 64 1016.2
20260506092544 50 0 0.0 0.0 0.00 0.03 0.00 64 1016.2
20260506092044 50 0 0.0 0.0 0.00 0.03 0.00 64 1016.2
20260506091553 50 0 0.0 0.0 0.00 0.03 0.00 63 1016.1
20260506091047 50 0 0.0 0.0 0.00 0.03 0.00 63 1016.2
20260506090548 50 0 0.0 0.0 0.00 0.03 0.00 62 1016.2
20260506090048 50 0 0.0 0.0 0.00 0.03 0.00 62 1016.2
20260506085543 50 0 0.0 0.0 0.00 0.03 0.00 62 1016.2
20260506085043 50 0 0.0 0.0 0.00 0.03 0.00 62 1016.2
20260506084554 50 0 0.0 0.0 0.00 0.03 0.00 61 1016.1
20260506084043 50 0 0.0 0.0 0.00 0.03 0.00 61 1016.2
20260506083544 50 0 0.0 0.0 0.00 0.03 0.00 61 1016.2
20260506083048 50 0 0.0 0.0 0.00 0.03 0.00 61 1016.3
20260506082545 51 0 0.0 0.0 0.00 0.03 0.00 61 1016.3
20260506082047 51 0 0.0 0.0 0.00 0.03 0.00 61 1016.4
20260506081548 51 0 0.0 0.0 0.00 0.03 0.00 61 1016.4
20260506081044 51 0 0.0 0.0 0.00 0.03 0.00 61 1016.4
20260506080544 51 0 0.0 0.0 0.00 0.03 0.00 61 1016.4
20260506073052 52 0 0.0 0.0 0.00 0.03 0.00 61 1016.1
20260506072544 52 0 0.0 0.0 0.00 0.03 0.00 62 1016.1
20260506072045 52 0 0.0 0.0 0.00 0.03 0.00 61 1016.0
20260506071604 53 0 0.0 0.0 0.00 0.03 0.00 61 1016.0
20260506071045 53 0 0.0 0.0 0.00 0.03 0.00 62 1016.0
20260506070635 53 0 0.0 1.0 0.00 0.03 0.00 61 1016.0
20260506062043 54 0 0.0 0.0 0.00 0.03 0.03 60 1015.6
20260506061551 55 0 0.0 3.0 0.00 0.03 0.03 60 1015.5
20260506061043 55 0 0.0 3.0 0.00 0.03 0.03 60 1015.6
20260506060544 55 0 0.0 1.0 0.00 0.03 0.03 60 1015.5
20260506051048 56 0 0.0 2.0 0.00 0.03 0.03 59 1015.2
20260506050543 56 0 0.0 2.0 0.00 0.03 0.03 59 1015.1
20260506045044 56 0 0.0 3.0 0.00 0.03 0.03 59 1015.0
20260506044553 56 0 0.0 3.0 0.00 0.03 0.03 59 1015.0
20260506044044 56 0 0.0 1.0 0.00 0.03 0.03 59 1014.8
20260506043547 57 0 0.0 2.0 0.00 0.03 0.03 59 1014.7
20260506043051 57 0 0.0 2.0 0.00 0.03 0.03 59 1014.7
20260506042544 57 209 0.0 2.0 0.00 0.03 0.03 59 1014.6
20260506042045 57 0 0.0 1.0 0.00 0.03 0.03 58 1014.6
20260506041604 57 0 0.0 1.0 0.00 0.03 0.03 58 1014.5
20260506041043 57 0 0.0 2.0 0.00 0.03 0.03 58 1014.4
20260506040543 57 0 0.0 2.0 0.00 0.03 0.03 58 1014.4
20260506040050 57 0 0.0 1.0 0.00 0.03 0.03 58 1014.4
20260506035547 57 0 0.0 2.0 0.00 0.03 0.03 58 1014.4
20260506035047 57 0 0.0 2.0 0.00 0.03 0.03 58 1014.3
20260506034554 57 0 0.0 1.0 0.00 0.03 0.03 58 1014.2
20260506034044 57 0 0.0 1.0 0.00 0.03 0.03 57 1014.2
20260506033546 57 0 0.0 1.0 0.00 0.03 0.03 57 1014.1
20260506033055 57 0 0.0 1.0 0.00 0.03 0.03 57 1014.1
20260506032543 57 0 0.0 2.0 0.00 0.03 0.03 57 1013.9
20260506032043 57 0 0.0 2.0 0.00 0.03 0.03 57 1013.9
20260506031557 57 0 0.0 4.0 0.00 0.03 0.03 57 1013.8
20260506031043 57 0 0.0 4.0 0.00 0.03 0.03 57 1013.8
20260506030540 58 211 0.0 3.0 0.00 0.03 0.03 57 1013.6
20260506030052 58 0 0.0 2.0 0.00 0.03 0.03 57 1013.7
20260506025546 58 0 0.0 4.0 0.00 0.03 0.03 57 1013.6
20260506025043 58 0 0.0 5.0 0.00 0.03 0.03 56 1013.4
20260506024551 58 0 1.0 5.0 0.00 0.03 0.03 56 1013.5
20260506024043 58 217 1.0 5.0 0.00 0.03 0.03 57 1013.3
20260506023542 58 0 0.0 4.0 0.00 0.03 0.03 56 1013.3
20260506023052 58 217 0.0 5.0 0.00 0.03 0.03 56 1013.4
20260506022543 58 0 0.0 5.0 0.00 0.03 0.03 56 1013.3
20260506022043 58 0 0.0 7.0 0.00 0.03 0.03 56 1013.2
20260506021554 58 0 1.0 7.0 0.00 0.03 0.03 56 1013.3
20260506021043 58 0 0.0 7.0 0.00 0.03 0.03 55 1013.1
20260506020542 59 223 1.0 6.0 0.00 0.03 0.03 55 1013.1
20260506020053 59 250 1.0 8.0 0.00 0.03 0.03 55 1013.0
20260506015543 59 237 2.0 8.0 0.00 0.03 0.03 55 1013.0
20260506015044 59 221 2.0 8.0 0.00 0.03 0.03 54 1013.0
20260506014558 59 206 1.0 5.0 0.00 0.03 0.03 55 1012.9
20260506014044 59 0 1.0 10.0 0.00 0.03 0.03 54 1013.0
20260506013543 59 0 1.0 10.0 0.00 0.03 0.03 54 1012.9
20260506013048 59 202 1.0 9.0 0.00 0.03 0.03 54 1012.9
20260506012543 59 231 2.0 9.0 0.00 0.03 0.03 55 1012.9
20260506012043 59 0 3.0 9.0 0.00 0.03 0.03 54 1012.9
20260506011549 59 210 3.0 9.0 0.00 0.03 0.03 54 1012.9
20260506011044 59 215 2.0 9.0 0.00 0.03 0.03 54 1012.8
20260506010545 59 234 2.0 9.0 0.00 0.03 0.03 54 1012.9
20260506010052 60 216 2.0 8.0 0.00 0.03 0.03 54 1013.0
20260506005543 60 213 2.0 9.0 0.00 0.03 0.03 54 1013.0
20260506005039 60 0 1.0 9.0 0.00 0.03 0.03 54 1012.9
20260506004555 60 193 1.0 9.0 0.00 0.03 0.03 54 1013.0
20260506004039 60 212 2.0 7.0 0.00 0.03 0.03 54 1012.8
20260506003543 60 227 1.0 8.0 0.00 0.03 0.03 54 1012.8
20260506003057 60 207 2.0 8.0 0.00 0.03 0.03 54 1012.8
20260506002547 60 222 1.0 9.0 0.00 0.03 0.03 54 1012.8
20260506002043 60 216 3.0 9.0 0.00 0.03 0.03 53 1012.7
20260506001609 60 234 1.0 9.0 0.00 0.03 0.03 54 1012.7
20260506001043 60 259 4.0 9.0 0.00 0.03 0.03 53 1012.7
20260506000543 60 217 4.0 10.0 0.00 0.03 0.03 53 1012.5
20260506000054 60 0 2.0 10.0 0.00 0.03 0.03 53 1012.5
20260505235543 60 202 2.0 8.0 0.00 0.03 0.03 53 1012.6
20260505235046 60 209 3.0 10.0 0.00 0.03 0.03 53 1012.5
20260505234551 61 232 4.0 10.0 0.00 0.03 0.03 53 1012.5
20260505234043 61 225 2.0 8.0 0.00 0.03 0.03 53 1012.6
20260505233546 61 0 1.0 9.0 0.00 0.03 0.03 53 1012.6
20260505233058 61 226 3.0 9.0 0.00 0.03 0.03 53 1012.7
20260505232543 61 215 1.0 5.0 0.00 0.03 0.03 53 1012.7
20260505232040 61 213 0.0 5.0 0.00 0.03 0.03 53 1012.7
20260505231555 61 0 2.0 8.0 0.00 0.03 0.03 53 1012.8
20260505231046 61 0 2.0 8.0 0.00 0.03 0.03 53 1012.8
20260505230543 61 213 1.0 5.0 0.00 0.03 0.03 52 1012.8
20260505230056 61 263 1.0 5.0 0.00 0.03 0.03 53 1012.8
20260505225543 61 232 1.0 6.0 0.00 0.03 0.03 54 1012.8
20260505225043 61 227 2.0 8.0 0.00 0.03 0.03 53 1012.7
20260505224550 61 215 3.0 8.0 0.00 0.03 0.03 53 1012.7
20260505224043 61 220 3.0 8.0 0.00 0.03 0.03 52 1012.7
20260505223543 61 228 3.0 7.0 0.00 0.03 0.03 53 1012.8
20260505223056 61 232 2.0 8.0 0.00 0.03 0.03 53 1012.8
20260505222543 61 219 2.0 8.0 0.00 0.03 0.03 53 1012.8
20260505222042 61 215 2.0 6.0 0.00 0.03 0.03 53 1012.9